#timestamp,LO_Frequency,Hit,StdDev 
1618650015.8,286047001.0,N
1618650035.6,286046999.4,N
1618650055.5,286046998.9,N
1618650075.3,286046999.2,N
1618650095.1,286046996.5,N
1618650115.9,286046997.2,N
1618650135.7,286046996.7,N
1618650155.6,286047000.5,N
1618650175.4,286047000.4,N
1618650195.2,286047001.0,N
1618650215.1,286046998.5,N
1618650216.0,286046998.5,N
1618650235.8,286047001.2,N
1618650255.7,286046998.2,N
1618650275.5,286046999.6,N
1618650295.3,286046998.1,N
1618650315.2,286047000.5,N
1618650335.0,286046999.4,N
1618650335.9,286046999.4,N
1618650355.8,286046999.9,N
1618650375.6,286047001.5,N
1618650395.4,286047005.8,Y
1618650415.3,286047005.2,P
1618650435.1,286047004.9,N
1618650455.8,286047005.2,N
1618650475.7,286047003.3,N
1618650495.5,286047008.8,Y
1618650515.4,286047002.6,P
1618650535.2,286047000.2,N
1618650555.0,286046998.1,N
1618650555.9,286046998.1,N
1618650575.8,286046997.4,N
1618650595.6,286046997.1,N
1618650615.5,286046997.1,N
1618650635.3,286046998.4,N
1618650655.1,286047000.7,N
1618650675.9,286047000.5,N
1618650695.7,286047000.9,N
1618650715.5,286047000.6,N
1618650735.4,286046999.4,N
1618650755.2,286046999.5,N
1618650775.1,286046997.7,N
1618650776.0,286046997.7,N
1618650795.8,286046999.2,N
1618650815.6,286047000.8,N
1618650835.5,286047000.1,N
1618650855.3,286047000.1,N
1618650875.1,286047001.6,N
1618650895.9,286047001.9,N
1618650915.7,286047002.0,N
1618650935.6,286047000.6,N
1618650955.4,286046999.1,N
1618650975.2,286047000.2,N
1618650995.1,286047001.5,N
1618650996.0,286047001.5,N
1618651015.8,286047002.2,N
1618651035.7,286047000.4,N
1618651055.5,286046999.9,N
1618651075.3,286047001.6,N
1618651095.2,286047000.6,N
1618651115.9,286047000.6,N
1618651135.7,286046999.1,N
1618651155.6,286046998.2,N
1618651175.4,286047002.0,N
1618651195.3,286047001.7,N
1618651215.1,286047000.3,N
1618651216.0,286047000.3,N
1618651235.8,286047001.2,N
1618651255.7,286046998.9,N
1618651275.5,286047000.5,N
1618651295.3,286047004.3,Y
1618651315.2,286047001.9,P
1618651335.0,286047004.0,P
1618651335.9,286047004.0,N
1618651355.8,286047002.2,N
1618651375.6,286047000.2,N
1618651395.4,286047000.6,N
1618651415.3,286046998.7,N
1618651435.1,286046997.8,N
1618651455.8,286046997.7,N
1618651475.7,286046996.3,N
1618651495.5,286046997.5,N
1618651515.4,286046997.6,N
1618651535.2,286046997.4,N
1618651555.0,286046998.4,N
1618651555.9,286046998.4,N
1618651575.8,286046997.3,N
1618651595.6,286046999.2,N
1618651615.4,286047001.2,N
1618651635.3,286046999.6,N
1618651655.1,286046996.6,N
1618651675.9,286046996.6,N
1618651695.7,286046996.8,N
1618651715.5,286046996.7,N
1618651735.4,286046997.4,N
1618651755.2,286046996.6,N
1618651775.0,286046999.0,N
1618651776.0,286046999.0,N
1618651795.8,286047000.3,N
1618651815.6,286046998.7,N
1618651835.5,286046999.3,N
1618651855.3,286046997.2,N
1618651875.1,286046997.8,N
1618651895.9,286046998.3,N
1618651915.7,286046996.6,N
1618651935.6,286046995.4,Y
1618651955.4,286046996.8,P
1618651975.2,286046999.6,N
1618651995.1,286046999.6,N
1618651996.0,286046999.6,N
1618652015.8,286046998.7,N
1618652035.6,286046999.8,N
1618652055.5,286047004.3,Y
1618652075.3,286047003.0,P
1618652095.2,286046999.7,N
1618652115.9,286047002.2,N
1618652135.7,286047001.6,N
1618652155.6,286047001.7,N
1618652175.4,286047002.1,N
1618652195.2,286047004.4,Y
1618652215.1,286047002.1,P
1618652216.0,286047002.1,P
1618652235.8,286047001.5,P
1618652255.7,286047001.5,Y
1618652275.5,286046999.3,P
1618652295.3,286046997.8,N
1618652315.2,286047011.9,P
1618652335.0,286046997.2,N
1618652335.9,286046997.2,N
1618652355.8,286047002.8,N
1618652375.6,286047002.3,N
1618652395.4,286047002.6,N
1618652415.3,286047003.2,N
1618652435.1,286047001.5,N
1618652455.8,286047004.1,N
1618652475.7,286047001.6,N
1618652495.5,286047001.2,N
1618652515.4,286046998.6,N
1618652535.2,286046999.7,N
1618652555.0,286047000.4,N
1618652555.9,286047000.4,N
1618652575.8,286046998.5,N
1618652595.6,286046997.3,N
1618652615.4,286046997.9,N
1618652635.3,286046994.9,N
1618652655.1,286046993.8,N
1618652675.9,286046996.3,N
1618652695.7,286046995.0,N
1618652715.5,286046997.7,N
1618652735.4,286046996.2,N
1618652755.2,286046996.1,N
1618652775.1,286046995.0,N
1618652776.0,286046995.0,N
1618652795.8,286046997.1,N
1618652815.6,286046995.1,N
1618652835.5,286046995.9,N
1618652855.3,286046997.6,N
1618652875.2,286046994.9,N
1618652895.9,286046995.1,N
1618652915.7,286046997.2,N
1618652935.6,286046997.7,N
1618652955.4,286046997.7,N
1618652975.2,286046995.3,N
1618652995.1,286046996.1,N
1618652996.0,286046996.1,N
1618653015.8,286046995.0,N
1618653035.7,286046997.1,N
1618653055.5,286046999.4,N
1618653075.3,286046997.4,N
1618653095.2,286046999.2,N
1618653115.0,286046995.0,Y
1618653115.9,286046995.0,P
1618653135.8,286047001.1,N
1618653155.6,286046998.2,N
1618653175.4,286047000.7,N
1618653195.3,286046998.4,N
1618653215.1,286046998.5,N
1618653235.9,286046998.8,N
1618653255.7,286046998.4,N
1618653275.5,286046999.1,N
1618653295.4,286046999.6,N
1618653315.2,286046998.9,N
1618653335.0,286046997.0,N
1618653335.9,286046997.0,N
1618653355.8,286046999.1,N
1618653375.6,286046998.4,N
1618653395.5,286047000.9,N
1618653415.3,286047000.7,N
1618653435.1,286046998.1,N
1618653455.9,286046999.0,N
1618653475.7,286046999.6,N
1618653495.6,286046998.7,N
1618653515.4,286047000.0,N
1618653535.2,286046998.3,N
1618653555.1,286046996.9,N
1618653556.0,286046996.9,N
1618653575.8,286046999.5,N
1618653595.6,286046995.3,Y
